EW0890 Weather Reports


time (UTC)temp
F
wind
direction
speed
knots
gust
knots
rain 1hr
in
rain 24hr
in
rain mn
in
humidity
%
barometer
mb
20260504221008 77 237 21.7 28.7 0.00 0.00 0.00 47 1000.8
20260504220505 77 255 23.5 29.5 0.00 0.00 0.00 47 1000.9
20260504220016 77 243 20.0 29.5 0.00 0.00 0.00 47 1000.9
20260504215507 77 238 22.6 30.4 0.00 0.00 0.00 46 1001.0
20260504215008 77 238 25.2 30.4 0.00 0.00 0.00 45 1000.9
20260504214519 77 229 20.9 31.3 0.00 0.00 0.00 46 1001.0
20260504214009 78 238 22.6 31.3 0.00 0.00 0.00 45 1001.2
20260504213508 78 257 20.9 28.7 0.00 0.00 0.00 44 1001.2
20260504213023 78 237 21.7 32.2 0.00 0.00 0.00 44 1001.1
20260504212507 78 238 20.0 32.2 0.00 0.00 0.00 45 1001.2
20260504212009 77 241 21.7 31.3 0.00 0.00 0.00 46 1001.2
20260504211506 78 236 21.7 31.3 0.00 0.00 0.00 45 1001.2
20260504211004 78 227 22.6 29.5 0.00 0.00 0.00 44 1001.2
20260504210504 77 250 23.5 27.8 0.00 0.00 0.00 44 1001.2
20260504210018 78 231 20.9 28.7 0.00 0.00 0.00 43 1001.3
20260504205505 78 229 20.9 29.5 0.00 0.00 0.00 44 1001.3
20260504205004 77 238 23.5 30.4 0.00 0.00 0.00 43 1001.2
20260504204516 77 247 23.5 30.4 0.00 0.00 0.00 44 1001.2
20260504204006 78 241 23.5 30.4 0.00 0.00 0.00 43 1001.3
20260504203514 77 235 21.7 30.4 0.00 0.00 0.00 43 1001.2
20260504203027 78 232 22.6 30.4 0.00 0.00 0.00 44 1001.4
20260504202513 78 228 20.0 32.2 0.00 0.00 0.00 43 1001.5
20260504202012 78 250 21.7 32.2 0.00 0.00 0.00 43 1001.3
20260504201524 77 245 22.6 31.3 0.00 0.00 0.00 43 1001.4
20260504201006 78 240 22.6 26.9 0.00 0.00 0.00 43 1001.5
20260504200509 79 233 20.0 26.1 0.00 0.00 0.00 43 1001.6
20260504200011 78 243 21.7 26.1 0.00 0.00 0.00 43 1001.6
20260504195503 78 248 20.9 29.5 0.00 0.00 0.00 43 1001.7
20260504195005 78 232 20.9 29.5 0.00 0.00 0.00 43 1001.8
20260504194514 78 245 19.1 27.8 0.00 0.00 0.00 42 1001.7
20260504194005 78 233 19.1 27.8 0.00 0.00 0.00 45 1001.7
20260504193505 77 225 17.4 24.3 0.00 0.00 0.00 47 1002.1
20260504193017 78 236 17.4 24.3 0.00 0.00 0.00 47 1001.8
20260504192505 78 239 20.0 24.3 0.00 0.00 0.00 47 1001.8
20260504192009 78 225 16.5 25.2 0.00 0.00 0.00 47 1001.8
20260504191507 77 228 20.0 26.1 0.00 0.00 0.00 47 1002.0
20260504191004 77 217 19.1 26.1 0.00 0.00 0.00 46 1002.2
20260504190502 77 234 18.2 26.1 0.00 0.00 0.00 47 1002.3
20260504190007 76 235 17.4 26.1 0.00 0.00 0.00 49 1002.3
20260504185504 76 226 15.6 26.1 0.00 0.00 0.00 49 1002.2
20260504185003 75 238 13.0 22.6 0.00 0.00 0.00 53 1002.3
20260504184514 74 238 16.5 24.3 0.00 0.00 0.00 53 1002.3
20260504184004 74 233 17.4 25.2 0.00 0.00 0.00 56 1002.5
20260504183504 73 235 14.8 25.2 0.00 0.00 0.00 57 1002.7
20260504183017 73 227 15.6 22.6 0.00 0.00 0.00 57 1002.7
20260504182505 73 236 15.6 22.6 0.00 0.00 0.00 55 1002.6
20260504182006 72 222 16.5 22.6 0.00 0.00 0.00 58 1002.7
20260504181522 72 230 17.4 22.6 0.00 0.00 0.00 56 1002.7
20260504181007 72 242 18.2 26.1 0.00 0.00 0.00 54 1002.9
20260504180513 73 227 19.1 26.1 0.00 0.00 0.00 54 1002.7
20260504180009 73 244 20.0 26.1 0.00 0.00 0.00 52 1002.7
20260504175503 73 242 19.1 24.3 0.00 0.00 0.00 51 1002.8
20260504175003 73 223 19.1 24.3 0.00 0.00 0.00 50 1002.8
20260504174509 74 236 20.0 28.7 0.00 0.00 0.00 49 1002.8
20260504174003 74 238 17.4 28.7 0.00 0.00 0.00 49 1002.9
20260504173504 74 238 23.5 28.7 0.00 0.00 0.00 48 1002.9
20260504173014 74 250 19.1 26.9 0.00 0.00 0.00 46 1003.0
20260504172504 74 251 20.0 28.7 0.00 0.00 0.00 46 1002.9
20260504172004 74 241 21.7 28.7 0.00 0.00 0.00 46 1002.8
20260504171518 75 244 19.1 26.1 0.00 0.00 0.00 48 1002.9
20260504170508 74 233 20.0 26.1 0.00 0.00 0.00 47 1002.9
20260504151003 71 229 15.6 20.9 0.00 0.00 0.00 54 1003.3
20260504150507 70 245 15.6 20.0 0.00 0.00 0.00 57 1003.3
20260504110508 52 219 6.1 8.7 0.00 0.00 0.00 86 1005.2
20260504100506 51 218 7.8 9.6 0.00 0.00 0.00 86 1005.4
20260504082003 52 223 10.4 14.8 0.00 0.00 0.00 84 1006.1
20260504081517 52 226 9.6 13.9 0.00 0.00 0.00 84 1006.1
20260504081004 52 215 10.4 13.0 0.00 0.00 0.00 84 1006.2
20260504080504 53 217 11.3 13.9 0.00 0.00 0.00 84 1006.2
20260504050507 54 214 7.8 11.3 0.00 0.00 0.00 76 1007.6
20260504045506 54 229 8.7 11.3 0.00 0.00 0.00 76 1007.6
20260504045007 54 235 7.8 12.2 0.00 0.00 0.00 75 1007.7
20260504044518 55 229 7.8 12.2 0.00 0.00 0.00 75 1007.7
20260504044008 54 221 8.7 11.3 0.00 0.00 0.00 75 1007.8
20260504043508 54 210 8.7 11.3 0.00 0.00 0.00 75 1007.8
20260504043021 54 219 7.8 10.4 0.00 0.00 0.00 75 1007.8
20260504042507 54 212 8.7 10.4 0.00 0.00 0.00 75 1007.8
20260504042007 54 225 7.8 10.4 0.00 0.00 0.00 75 1007.7
20260504041523 54 221 8.7 10.4 0.00 0.00 0.00 75 1007.7
20260504041010 54 229 7.8 10.4 0.00 0.00 0.00 76 1007.7
20260504040510 54 224 7.0 8.7 0.00 0.00 0.00 75 1007.8
20260504040028 55 237 6.1 8.7 0.00 0.00 0.00 74 1007.8
20260504035512 55 219 6.1 8.7 0.00 0.00 0.00 74 1007.9
20260504035007 55 236 7.0 9.6 0.00 0.00 0.00 73 1008.0
20260504034529 55 226 7.0 9.6 0.00 0.00 0.00 73 1008.0
20260504034011 55 220 7.8 9.6 0.00 0.00 0.00 73 1008.1
20260504033507 55 219 7.0 8.7 0.00 0.00 0.00 72 1008.1
20260504033017 56 232 5.2 8.7 0.00 0.00 0.00 71 1008.1
20260504032509 57 231 7.0 11.3 0.00 0.00 0.00 71 1008.2
20260504032009 57 224 7.8 11.3 0.00 0.00 0.00 71 1008.2
20260504031524 57 225 7.0 9.6 0.00 0.00 0.00 70 1008.2
20260504031008 57 243 5.2 7.8 0.00 0.00 0.00 70 1008.1
20260504030507 57 244 4.3 7.8 0.00 0.00 0.00 70 1008.2
20260504030023 57 240 5.2 7.0 0.00 0.00 0.00 69 1008.1
20260504025507 57 253 5.2 7.0 0.00 0.00 0.00 69 1008.2
20260504025012 57 256 5.2 7.0 0.00 0.00 0.00 68 1008.1
20260504024528 57 257 5.2 7.0 0.00 0.00 0.00 69 1008.0
20260504024009 57 236 4.3 7.0 0.00 0.00 0.00 68 1008.0
20260504023504 57 249 5.2 6.1 0.00 0.00 0.00 69 1008.0
20260504023005 57 238 5.2 6.1 0.00 0.00 0.00 69 1008.0
20260504022506 57 239 5.2 6.1 0.00 0.00 0.00 69 1008.0
20260504022004 57 232 5.2 6.1 0.00 0.00 0.00 68 1008.0
20260504021502 58 241 5.2 6.1 0.00 0.00 0.00 67 1008.1
20260504021004 58 236 5.2 6.1 0.00 0.00 0.00 67 1008.1
20260504020503 58 231 5.2 7.0 0.00 0.00 0.00 67 1008.0
20260504020003 58 240 6.1 7.0 0.00 0.00 0.00 67 1007.9
20260504015503 58 240 6.1 7.0 0.00 0.00 0.00 66 1007.9
20260504015005 59 249 6.1 7.0 0.00 0.00 0.00 66 1007.9
20260504014506 58 251 4.3 6.1 0.00 0.00 0.00 65 1007.8
20260504014003 58 238 4.3 6.1 0.00 0.00 0.00 65 1007.8
20260504013503 59 231 5.2 6.1 0.00 0.00 0.00 65 1007.8
20260504013006 59 224 5.2 6.1 0.00 0.00 0.00 65 1007.8
20260504012504 59 231 5.2 6.1 0.00 0.00 0.00 64 1007.7
20260504012004 59 221 5.2 6.1 0.00 0.00 0.00 63 1007.8
20260504011504 59 232 4.3 6.1 0.00 0.00 0.00 62 1007.7
20260504011004 60 233 5.2 6.1 0.00 0.00 0.00 61 1007.7
20260504010503 60 243 4.3 6.1 0.00 0.00 0.00 60 1007.6
20260504010006 61 233 5.2 6.1 0.00 0.00 0.00 59 1007.6
20260504005504 61 242 4.3 5.2 0.00 0.00 0.00 58 1007.6
20260504005004 62 233 4.3 6.1 0.00 0.00 0.00 57 1007.6
20260504004503 62 233 4.3 6.1 0.00 0.00 0.00 56 1007.5
20260504004003 63 231 3.5 4.3 0.00 0.00 0.00 55 1007.6
20260504003503 64 243 2.6 5.2 0.00 0.00 0.00 53 1007.7
20260504003006 65 250 3.5 6.1 0.00 0.00 0.00 52 1007.7
20260504002503 65 246 4.3 7.0 0.00 0.00 0.00 51 1007.6
20260504002004 66 249 5.2 7.8 0.00 0.00 0.00 51 1007.6
20260504001508 66 245 6.1 8.7 0.00 0.00 0.00 49 1007.7
20260504001004 67 242 7.0 9.6 0.00 0.00 0.00 48 1007.6
20260504000504 67 236 7.0 10.4 0.00 0.00 0.00 48 1007.6
20260504000019 67 238 7.8 10.4 0.00 0.00 0.00 48 1007.5
20260503235506 67 248 7.8 10.4 0.00 0.00 0.00 48 1007.6
20260503235004 67 263 7.8 11.3 0.00 0.00 0.00 47 1007.6
20260503234508 67 251 8.7 12.2 0.00 0.00 0.00 47 1007.6
20260503234004 67 250 8.7 13.0 0.00 0.00 0.00 46 1007.5
20260503233505 67 250 10.4 13.0 0.00 0.00 0.00 45 1007.5
20260503233007 67 240 10.4 12.2 0.00 0.00 0.00 45 1007.6
20260503232504 67 247 8.7 11.3 0.00 0.00 0.00 46 1007.7
20260503232004 68 213 9.6 12.2 0.00 0.00 0.00 45 1007.7
20260503231509 68 248 9.6 13.0 0.00 0.00 0.00 44 1007.7
20260503231004 68 242 10.4 13.9 0.00 0.00 0.00 44 1007.7
20260503230504 68 233 11.3 15.6 0.00 0.00 0.00 43 1007.8
20260503230008 68 246 12.2 15.6 0.00 0.00 0.00 42 1007.7
20260503225504 68 251 11.3 17.4 0.00 0.00 0.00 43 1007.8
20260503225007 68 252 12.2 17.4 0.00 0.00 0.00 43 1007.8
20260503224508 68 233 12.2 15.6 0.00 0.00 0.00 43 1007.9
20260503224004 67 240 12.2 15.6 0.00 0.00 0.00 44 1008.0
20260503223504 68 236 13.9 17.4 0.00 0.00 0.00 42 1008.1
20260503223008 68 245 13.0 18.2 0.00 0.00 0.00 43 1008.1
20260503222503 68 250 13.0 20.0 0.00 0.00 0.00 42 1008.1
20260503222003 67 241 15.6 20.0 0.00 0.00 0.00 43 1008.2
20260503221508 67 224 15.6 19.1 0.00 0.00 0.00 44 1008.1